Simultaneous Nadir Overpasses (SNOs) Predictions

Prediction of SNOs between GOES-16 and NPP Satellite Orbit:

Table of predicted SNOs for the next 14.0 days since TLE Epoch: 4/20/2024
Index Date Time (GOES-16) GOES-16 Lat,Lon NPP Lat,Lon Distance(km) Time Diff (sec)
1 04/21/2024 06:24:17 -0.01, -75.20 -0.01, -75.12 9.50 80
2 04/23/2024 18:30:09 0.01, -75.21 -0.15, -75.90 78.14 80
3 04/24/2024 18:11:24 0.01, -75.22 0.89, -71.37 438.83 80
4 04/26/2024 06:33:11 -0.01, -75.23 0.28, -76.64 160.32 80
5 04/27/2024 06:11:46 -0.01, -75.23 -0.70, -72.10 356.67 80
6 04/28/2024 18:33:42 0.01, -75.24 -0.46, -77.41 247.21 80
7 04/29/2024 18:17:37 0.01, -75.25 0.53, -72.88 270.08 80
8 05/01/2024 06:39:24 -0.00, -75.26 0.62, -78.15 328.35 80
9 05/02/2024 06:17:59 -0.00, -75.27 -0.37, -73.61 189.26 80
10 05/03/2024 18:39:54 0.00, -75.29 -0.82, -78.91 413.53 80
